Location: Aiyekoto
(8.4333°N, 4.3667°E)
Time: 22:02:49
(UTC+00:00)

ATLAS 5 CENTAUR R/B - Pass Details

Date: 04 October 2020
Orbit: 527 x 1131 km, 63.4° (Epoch: 28 October)

Event Time Altitude Azimuth Distance (km) Brightness Sun altitude
Rises 18:59:19 0° 193° (SSW) 2,761 5.1 -22.5°
Reaches altitude 10° 19:01:39 10° 187° (S) 1,816 4.0 -23.1°
Enters shadow 19:02:58 19° 179° (S) 1,314 3.2 -23.4°
